Location: Antioch
(38.0049°N, 121.8058°W)
Time: 03:40:39
(UTC+00:00)

Cosmos 2208 Rocket - Pass Details

Date: 20 May 2026
Orbit: 751 x 800 km, 74.0° (Epoch: 9 June)

Event Time Altitude Azimuth Distance (km) Brightness Sun altitude
Exits shadow 09:10:49 59° 350° (N) 888 4.4 -29.9°
Drops below altitude 10° 09:15:10 10° 15° (NNE) 2,312 7.4 -29.6°
Sets 09:17:33 0° 17° (NNE) 3,235 8.5 -29.4°
